Location: Aufkirchen
(47.9603°N, 11.3653°E)
Time: 11:07:29
(UTC+01:00)

Vanguard 2 - Visible Passes

Search period start: 30 November 2020 00:00
Search period end: 10 December 2020 00:00
Orbit: 554 x 2937 km, 32.9° (Epoch: 29 November)

Date Brightness Start Highest point End Pass type
(mag) Time Alt. Az. Time Alt. Az. Time Alt. Az.
04 Dec 11.4 06:35:19 10° S 06:37:21 11° SSE 06:39:14 10° SSE visible
05 Dec 11.2 06:49:57 10° SSW 06:55:01 15° SSE 06:59:06 10° SE visible
06 Dec 11.0 07:06:04 10° SSW 07:12:41 19° SSE 07:17:39 10° SE visible
07 Dec 11.5 05:16:32 10° S 05:21:33 13° SSE 05:25:47 10° SE visible
08 Dec 11.2 05:31:40 10° SSW 05:39:12 18° SSE 05:45:03 10° ESE visible
09 Dec 11.0 05:47:45 10° SSW 05:56:51 22° SSE 06:03:32 10° ESE visible
